EZY32MN EHAM-EGGP

Flight info

Callsign EZY32MN
Flight time 0h 56m
Altitude 34000
Route BERGI L60 OTBED Y70 POL
Aircraft A320/M-SDE2E3FGHIJ1RWXYZ/LB1

Departure

Time 2026-04-17 12:47
Airport Amsterdam Airport Schiphol (EHAM)

Arrival

Time 2026-04-17 13:43
Airport Liverpool John Lennon Airport (EGGP)
Time Latitude Longitude Altitude Speed Heading
2026-04-17 12:24 52.31045 4.75519 -1 ft 0 kts 148°
2026-04-17 12:35 52.31048 4.75516 -1 ft 3 kts 148°
2026-04-17 12:35 52.31071 4.75494 -1 ft 4 kts 147°
2026-04-17 12:37 52.31078 4.75443 -1 ft 0 kts 72°
2026-04-17 12:40 52.31088 4.75460 -1 ft 8 kts 43°
2026-04-17 12:41 52.31171 4.75494 -1 ft 15 kts 358°
2026-04-17 12:41 52.31264 4.75486 -1 ft 11 kts 355°
2026-04-17 12:41 52.31332 4.75479 -1 ft 9 kts 356°
2026-04-17 12:41 52.31392 4.75474 -1 ft 8 kts
2026-04-17 12:42 52.31426 4.75519 -1 ft 6 kts 70°
2026-04-17 12:42 52.31433 4.75638 -1 ft 20 kts 85°
2026-04-17 12:42 52.31441 4.75878 -1 ft 22 kts 89°
2026-04-17 12:42 52.31449 4.76136 -1 ft 24 kts 86°
2026-04-17 12:43 52.31461 4.76411 -1 ft 25 kts 86°
2026-04-17 12:43 52.31472 4.76703 -1 ft 26 kts 86°
2026-04-17 12:43 52.31482 4.77010 -1 ft 28 kts 87°
2026-04-17 12:43 52.31415 4.77284 -1 ft 27 kts 132°
2026-04-17 12:44 52.31280 4.77493 -1 ft 26 kts 159°
2026-04-17 12:44 52.31123 4.77499 -1 ft 15 kts 182°
2026-04-17 12:44 52.31014 4.77487 -1 ft 15 kts 184°
2026-04-17 12:44 52.30907 4.77477 -1 ft 16 kts 184°
2026-04-17 12:45 52.30803 4.77466 -1 ft 15 kts 184°
2026-04-17 12:45 52.30696 4.77454 -1 ft 16 kts 188°
2026-04-17 12:45 52.30602 4.77344 -1 ft 18 kts 213°
2026-04-17 12:45 52.30489 4.77398 -1 ft 19 kts 148°
2026-04-17 12:46 52.30369 4.77383 -3 ft 19 kts 196°
2026-04-17 12:46 52.30261 4.77240 -4 ft 26 kts 238°
2026-04-17 12:46 52.30069 4.76741 -2 ft 86 kts 238°
2026-04-17 12:46 52.29645 4.75631 -1 ft 142 kts 238°
2026-04-17 12:47 52.29037 4.74085 159 ft 174 kts 237°
2026-04-17 12:47 52.28385 4.72362 782 ft 180 kts 236°
2026-04-17 12:47 52.27674 4.70659 1458 ft 186 kts 233°
2026-04-17 12:47 52.26770 4.68980 1743 ft 209 kts 224°
2026-04-17 12:48 52.25680 4.67206 2142 ft 234 kts 224°
2026-04-17 12:48 52.24526 4.65191 2735 ft 251 kts 236°
2026-04-17 12:48 52.23830 4.62540 3601 ft 257 kts 251°
2026-04-17 12:48 52.23259 4.59763 4557 ft 259 kts 251°
2026-04-17 12:49 52.22992 4.56848 5440 ft 266 kts 277°
2026-04-17 12:49 52.23757 4.54098 6314 ft 275 kts 311°
2026-04-17 12:49 52.25244 4.52107 7227 ft 279 kts 324°
2026-04-17 12:49 52.26899 4.50429 8092 ft 282 kts 328°
2026-04-17 12:50 52.28625 4.48843 8929 ft 286 kts 329°
2026-04-17 12:50 52.30380 4.47251 9738 ft 291 kts 329°
2026-04-17 12:50 52.32150 4.45611 10498 ft 297 kts 328°
2026-04-17 12:50 52.34009 4.43855 10789 ft 321 kts 329°
2026-04-17 12:51 52.36126 4.42425 11285 ft 337 kts 341°
2026-04-17 12:51 52.38456 4.41693 11980 ft 345 kts 352°
2026-04-17 12:51 52.40824 4.41053 12694 ft 346 kts 339°
2026-04-17 12:51 52.42946 4.39266 13385 ft 343 kts 319°
2026-04-17 12:52 52.44578 4.36452 14071 ft 341 kts 304°
2026-04-17 12:52 52.46022 4.33347 14762 ft 344 kts 304°
2026-04-17 12:52 52.47476 4.30213 15432 ft 347 kts 304°
2026-04-17 12:52 52.48943 4.27051 16081 ft 350 kts 304°
2026-04-17 12:53 52.50424 4.23860 16708 ft 353 kts 304°
2026-04-17 12:53 52.51921 4.20632 17339 ft 356 kts 304°
2026-04-17 12:53 52.53428 4.17376 17947 ft 360 kts 303°
2026-04-17 12:53 52.54952 4.14087 18550 ft 363 kts 303°
2026-04-17 12:54 52.56487 4.10771 19158 ft 366 kts 304°
2026-04-17 12:54 52.58035 4.07427 19754 ft 368 kts 304°
2026-04-17 12:54 52.59586 4.04066 20325 ft 370 kts 304°
2026-04-17 12:54 52.61147 4.00678 20880 ft 373 kts 304°
2026-04-17 12:55 52.62715 3.97272 21409 ft 375 kts 303°
2026-04-17 12:55 52.64292 3.93842 21910 ft 377 kts 303°
2026-04-17 12:55 52.65877 3.90384 22407 ft 379 kts 303°
2026-04-17 12:55 52.67469 3.86907 22887 ft 381 kts 303°
2026-04-17 12:56 52.69072 3.83404 23373 ft 384 kts 303°
2026-04-17 12:56 52.70683 3.79883 23836 ft 386 kts 303°
2026-04-17 12:56 52.72302 3.76343 24286 ft 388 kts 303°
2026-04-17 12:56 52.73925 3.72779 24722 ft 390 kts 303°
2026-04-17 12:57 52.75558 3.69189 25161 ft 392 kts 304°
2026-04-17 12:57 52.77198 3.65574 25604 ft 394 kts 303°
2026-04-17 12:57 52.78824 3.61995 26027 ft 395 kts 303°
2026-04-17 12:57 52.80477 3.58359 26435 ft 397 kts 303°
2026-04-17 12:58 52.82135 3.54703 26830 ft 398 kts 303°
2026-04-17 12:58 52.83797 3.51027 27200 ft 400 kts 303°
2026-04-17 12:58 52.85463 3.47332 27569 ft 402 kts 303°
2026-04-17 12:58 52.87137 3.43615 27947 ft 403 kts 303°
2026-04-17 12:59 52.88818 3.39884 28311 ft 405 kts 303°
2026-04-17 12:59 52.90505 3.36134 28669 ft 406 kts 303°
2026-04-17 12:59 52.92196 3.32370 29011 ft 408 kts 303°
2026-04-17 12:59 52.93891 3.28587 29346 ft 410 kts 303°
2026-04-17 13:00 52.95590 3.24786 29682 ft 411 kts 303°
2026-04-17 13:00 52.97184 3.20862 29990 ft 409 kts 295°
2026-04-17 13:00 52.98376 3.16595 30299 ft 407 kts 287°
2026-04-17 13:00 52.99248 3.12127 30585 ft 408 kts 285°
2026-04-17 13:01 53.00100 3.07637 30876 ft 409 kts 285°
2026-04-17 13:01 53.00954 3.03128 31168 ft 410 kts 285°
2026-04-17 13:01 53.01809 2.98604 31454 ft 411 kts 285°
2026-04-17 13:01 53.02664 2.94080 31798 ft 410 kts 285°
2026-04-17 13:02 53.03515 2.89572 32187 ft 408 kts 285°
2026-04-17 13:02 53.04362 2.85087 32560 ft 406 kts 285°
2026-04-17 13:02 53.05204 2.80620 32925 ft 404 kts 285°
2026-04-17 13:02 53.06038 2.76169 33307 ft 402 kts 284°
2026-04-17 13:03 53.06864 2.71738 33694 ft 400 kts 284°
2026-04-17 13:03 53.07683 2.67333 34048 ft 399 kts 284°
2026-04-17 13:03 53.08497 2.62943 34148 ft 394 kts 284°
2026-04-17 13:04 53.10083 2.54380 34165 ft 384 kts 284°
2026-04-17 13:04 53.11247 2.45789 34165 ft 380 kts 276°
2026-04-17 13:05 53.11951 2.37082 34157 ft 379 kts 276°
2026-04-17 13:05 53.12665 2.28386 34155 ft 379 kts 276°
2026-04-17 13:06 53.13376 2.19686 34157 ft 379 kts 276°
2026-04-17 13:06 53.13962 2.12462 34156 ft 379 kts 276°
2026-04-17 13:07 53.14648 2.03770 34150 ft 380 kts 275°
2026-04-17 13:07 53.15335 1.95036 34156 ft 378 kts 275°
2026-04-17 13:08 53.16012 1.86341 34160 ft 383 kts 275°
2026-04-17 13:08 53.16693 1.77531 34176 ft 382 kts 275°
2026-04-17 13:09 53.17368 1.68769 34173 ft 380 kts 275°
2026-04-17 13:09 53.18031 1.60030 34165 ft 379 kts 275°
2026-04-17 13:10 53.18680 1.51314 34160 ft 379 kts 274°
2026-04-17 13:10 53.19324 1.42606 34156 ft 378 kts 274°
2026-04-17 13:11 53.19967 1.33899 34156 ft 378 kts 274°
2026-04-17 13:11 53.20600 1.25188 34153 ft 378 kts 274°
2026-04-17 13:12 53.21224 1.16491 34146 ft 377 kts 274°
2026-04-17 13:12 53.22149 1.03524 34139 ft 377 kts 274°
2026-04-17 13:13 53.22763 0.94837 34139 ft 376 kts 273°
2026-04-17 13:13 53.23364 0.86156 34137 ft 376 kts 273°
2026-04-17 13:14 53.23963 0.77485 34134 ft 376 kts 273°
2026-04-17 13:14 53.24556 0.68817 34130 ft 376 kts 273°
2026-04-17 13:15 53.25142 0.60147 34127 ft 375 kts 273°
2026-04-17 13:15 53.25721 0.51486 34123 ft 375 kts 272°
2026-04-17 13:16 53.26286 0.42835 34122 ft 375 kts 272°
2026-04-17 13:16 53.26840 0.34185 34116 ft 374 kts 272°
2026-04-17 13:17 53.27393 0.25545 34109 ft 374 kts 272°
2026-04-17 13:17 53.27939 0.16908 34105 ft 374 kts 272°
2026-04-17 13:18 53.28477 0.08279 34099 ft 373 kts 272°
2026-04-17 13:18 53.29790 -0.00194 34085 ft 390 kts 289°
2026-04-17 13:19 53.32201 -0.08413 34014 ft 400 kts 288°
2026-04-17 13:19 53.33443 -0.12655 33211 ft 400 kts 287°
2026-04-17 13:19 53.34647 -0.16770 32171 ft 398 kts 287°
2026-04-17 13:20 53.35857 -0.20918 31173 ft 395 kts 287°
2026-04-17 13:20 53.37058 -0.25047 30313 ft 395 kts 287°
2026-04-17 13:20 53.38254 -0.29182 29718 ft 393 kts 287°
2026-04-17 13:20 53.39440 -0.33279 29281 ft 388 kts 287°
2026-04-17 13:21 53.40610 -0.37319 28816 ft 384 kts 287°
2026-04-17 13:21 53.41772 -0.41338 28265 ft 382 kts 287°
2026-04-17 13:21 53.42924 -0.45333 27749 ft 379 kts 287°
2026-04-17 13:21 53.44066 -0.49295 27244 ft 376 kts 287°
2026-04-17 13:22 53.45184 -0.53180 26727 ft 373 kts 287°
2026-04-17 13:22 53.46305 -0.57088 26224 ft 370 kts 287°
2026-04-17 13:22 53.47415 -0.60964 25723 ft 367 kts 287°
2026-04-17 13:22 53.48518 -0.64815 25225 ft 364 kts 287°
2026-04-17 13:23 53.49608 -0.68634 24733 ft 361 kts 287°
2026-04-17 13:23 53.50683 -0.72425 24248 ft 358 kts 287°
2026-04-17 13:23 53.51746 -0.76183 23767 ft 355 kts 287°
2026-04-17 13:23 53.52803 -0.79920 23284 ft 353 kts 287°
2026-04-17 13:24 53.53854 -0.83634 22801 ft 351 kts 287°
2026-04-17 13:24 53.54900 -0.87330 22324 ft 349 kts 287°
2026-04-17 13:24 53.55943 -0.91012 21838 ft 348 kts 287°
2026-04-17 13:24 53.56978 -0.94678 21379 ft 346 kts 287°
2026-04-17 13:25 53.58006 -0.98332 20908 ft 345 kts 287°
2026-04-17 13:25 53.59028 -1.01966 20436 ft 343 kts 287°
2026-04-17 13:25 53.59981 -1.05626 19971 ft 336 kts 280°
2026-04-17 13:25 53.60441 -1.09401 19520 ft 324 kts 267°
2026-04-17 13:26 53.60358 -1.13117 19075 ft 314 kts 255°
2026-04-17 13:26 53.59996 -1.16716 18658 ft 311 kts 255°
2026-04-17 13:26 53.59642 -1.20291 18233 ft 308 kts 255°
2026-04-17 13:26 53.59294 -1.23842 17813 ft 307 kts 255°
2026-04-17 13:27 53.58948 -1.27375 17364 ft 306 kts 255°
2026-04-17 13:27 53.58605 -1.30915 16888 ft 306 kts 255°
2026-04-17 13:27 53.58262 -1.34450 16411 ft 306 kts 255°
2026-04-17 13:27 53.57920 -1.37942 15943 ft 307 kts 255°
2026-04-17 13:28 53.57568 -1.41483 15466 ft 307 kts 255°
2026-04-17 13:28 53.57213 -1.45031 14988 ft 308 kts 255°
2026-04-17 13:28 53.56854 -1.48573 14505 ft 307 kts 255°
2026-04-17 13:28 53.56499 -1.52109 14038 ft 307 kts 256°
2026-04-17 13:29 53.56147 -1.55643 13558 ft 305 kts 256°
2026-04-17 13:29 53.55794 -1.59165 13076 ft 305 kts 256°
2026-04-17 13:29 53.55441 -1.62679 12605 ft 305 kts 256°
2026-04-17 13:29 53.55089 -1.66196 12128 ft 305 kts 256°
2026-04-17 13:30 53.54735 -1.69707 11650 ft 304 kts 256°
2026-04-17 13:30 53.54382 -1.73206 11171 ft 303 kts 256°
2026-04-17 13:30 53.54027 -1.76693 10696 ft 302 kts 256°
2026-04-17 13:30 53.53669 -1.80162 10218 ft 300 kts 256°
2026-04-17 13:31 53.53314 -1.83605 9743 ft 299 kts 256°
2026-04-17 13:31 53.52964 -1.87028 9269 ft 296 kts 257°
2026-04-17 13:31 53.52875 -1.90472 9046 ft 292 kts 269°
2026-04-17 13:31 53.53040 -1.93782 9043 ft 277 kts 270°
2026-04-17 13:32 53.53221 -1.96951 9050 ft 270 kts 270°
2026-04-17 13:32 53.53404 -2.00076 9058 ft 268 kts 270°
2026-04-17 13:32 53.53584 -2.03193 9060 ft 268 kts 270°
2026-04-17 13:32 53.53766 -2.06303 9063 ft 268 kts 270°
2026-04-17 13:33 53.53950 -2.09411 9063 ft 267 kts 270°
2026-04-17 13:33 53.54137 -2.12518 9009 ft 266 kts 270°
2026-04-17 13:33 53.54325 -2.15593 8644 ft 263 kts 270°
2026-04-17 13:33 53.54513 -2.18652 8243 ft 263 kts 270°
2026-04-17 13:34 53.54702 -2.21702 7855 ft 261 kts 270°
2026-04-17 13:34 53.54885 -2.24721 7268 ft 258 kts 270°
2026-04-17 13:34 53.55066 -2.27704 6621 ft 256 kts 270°
2026-04-17 13:34 53.55249 -2.30660 5985 ft 253 kts 270°
2026-04-17 13:35 53.55431 -2.33574 5347 ft 249 kts 270°
2026-04-17 13:35 53.55462 -2.36443 4655 ft 241 kts 253°
2026-04-17 13:35 53.54813 -2.38971 4082 ft 236 kts 239°
2026-04-17 13:35 53.54058 -2.41441 3612 ft 234 kts 239°
2026-04-17 13:36 53.53090 -2.43473 3207 ft 217 kts 213°
2026-04-17 13:36 53.51809 -2.44706 2814 ft 209 kts 206°
2026-04-17 13:36 53.50530 -2.45771 2530 ft 202 kts 205°
2026-04-17 13:36 53.49234 -2.46746 2523 ft 205 kts 201°
2026-04-17 13:37 53.47894 -2.47588 2523 ft 206 kts 200°
2026-04-17 13:37 53.46533 -2.48407 2523 ft 208 kts 200°
2026-04-17 13:37 53.45178 -2.49218 2534 ft 206 kts 200°
2026-04-17 13:37 53.43830 -2.50030 2523 ft 205 kts 200°
2026-04-17 13:38 53.42486 -2.50833 2403 ft 204 kts 200°
2026-04-17 13:38 53.41138 -2.51641 2091 ft 206 kts 200°
2026-04-17 13:38 53.39787 -2.52457 2018 ft 207 kts 200°
2026-04-17 13:38 53.38470 -2.53259 2015 ft 196 kts 200°
2026-04-17 13:39 53.37216 -2.54083 2017 ft 192 kts 210°
2026-04-17 13:39 53.36275 -2.55648 2030 ft 193 kts 232°
2026-04-17 13:39 53.35524 -2.57500 2027 ft 192 kts 235°
2026-04-17 13:39 53.34803 -2.59364 2030 ft 186 kts 238°
2026-04-17 13:40 53.34416 -2.61343 2026 ft 179 kts 261°
2026-04-17 13:40 53.34324 -2.63403 2016 ft 176 kts 262°
2026-04-17 13:40 53.34239 -2.65427 2016 ft 174 kts 262°
2026-04-17 13:40 53.34151 -2.67450 1888 ft 175 kts 262°
2026-04-17 13:41 53.34064 -2.69430 1710 ft 163 kts 262°
2026-04-17 13:41 53.33983 -2.71273 1519 ft 155 kts 262°
2026-04-17 13:41 53.33902 -2.73058 1310 ft 153 kts 263°
2026-04-17 13:41 53.33822 -2.74829 1115 ft 156 kts 264°
2026-04-17 13:42 53.33744 -2.76573 901 ft 144 kts 264°
2026-04-17 13:42 53.33673 -2.78175 719 ft 134 kts 263°
2026-04-17 13:42 53.33603 -2.79719 548 ft 132 kts 263°
2026-04-17 13:42 53.33538 -2.81244 366 ft 131 kts 263°
2026-04-17 13:43 53.33473 -2.82763 186 ft 131 kts 264°
2026-04-17 13:43 53.33395 -2.84214 66 ft 105 kts 266°
2026-04-17 13:43 53.33366 -2.84940 78 ft 29 kts 265°
2026-04-17 13:43 53.33365 -2.85260 84 ft 26 kts 279°
2026-04-17 13:44 53.33426 -2.85540 81 ft 28 kts 294°
2026-04-17 13:44 53.33481 -2.85764 84 ft 15 kts 290°
2026-04-17 13:44 53.33506 -2.85916 86 ft 13 kts 321°
2026-04-17 13:44 53.33584 -2.85919 90 ft 11 kts 34°
2026-04-17 13:45 53.33600 -2.85810 86 ft 9 kts 86°
2026-04-17 13:45 53.33604 -2.85706 85 ft 8 kts 86°
2026-04-17 13:45 53.33608 -2.85616 87 ft 7 kts 85°
2026-04-17 13:45 53.33612 -2.85536 89 ft 6 kts 84°
2026-04-17 13:46 53.33631 -2.85511 85 ft 2 kts 10°
2026-04-17 13:46 53.33639 -2.85511 87 ft 0 kts
2026-04-17 13:47 53.33646 -2.85512 87 ft 1 kts 358°
2026-04-17 13:47 53.33653 -2.85512 86 ft 0 kts 358°
2026-04-17 13:47 53.33660 -2.85513 90 ft 3 kts 357°
2026-04-17 13:48 53.33666 -2.85513 86 ft 0 kts 357°